[Iaude] MPEC A144: 2024 AR3 [a=2.03,e=0.58,i=11.6,H=23.5]

mpec at marsden.cfa.harvard.edu mpec at marsden.cfa.harvard.edu
Fri Jan 12 10:48:19 EST 2024


M.P.E.C. 2024-A144                             Issued 2024 January 12, 15:46 UT

     The Minor Planet Electronic Circulars contain information on unusual
         minor planets, routine data on comets and natural satellites,
         and occasional editorial announcements.  They are published
    on behalf of Division F of the International Astronomical Union by the
          Minor Planet Center, Smithsonian Astrophysical Observatory,
                          Cambridge, MA 02138, U.S.A.
			  
             Prepared using the Tamkin Foundation Computer Network

                              MPC at CFA.HARVARD.EDU
            URL https://www.minorplanetcenter.net/    ISSN 1523-6714

                                    2024 AR3                                    


Observations:
     K24A03R*1C2024 01 11.40194910 54 02.282+14 54 18.97               VEA144G96
     K24A03R 1C2024 01 11.40709510 54 00.151+14 55 14.99         19.46GVEA144G96
     K24A03R 1C2024 01 11.41224610 53 58.110+14 56 10.57         20.32GVEA144G96
     K24A03R 1C2024 01 11.41739810 53 56.029+14 57 06.05         19.65GVEA144G96
     K24A03R KC2024 01 11.43627310 53 48.419+15 00 29.02         19.82GVEA144V06
     K24A03R KC2024 01 11.43742810 53 47.944+15 00 41.11         19.63GVEA144V06
     K24A03R KC2024 01 11.43858510 53 47.483+15 00 53.82         20.04GVEA144V06
     K24A03R KC2024 01 11.43974010 53 47.018+15 01 06.13         19.66GVEA144V06
     K24A03R KB2024 01 11.45589 10 53 39.00 +15 03 47.2          19.7 GXEA144H36
     K24A03R KB2024 01 11.46311 10 53 36.19 +15 05 04.5          19.7 GXEA144H36
     K24A03R KB2024 01 11.47032 10 53 33.28 +15 06 20.8          20.2 GXEA144H36
     K24A03R IC2024 01 12.08266710 49 59.55 +16 50 28.2          19.8 GVEA144L01
     K24A03R KC2024 01 12.08414610 49 59.02 +16 50 42.7          20.0 GVEA144L01
     K24A03R KC2024 01 12.08562710 49 58.49 +16 50 57.3          19.9 GVEA144L01
     K24A03R KC2024 01 12.08710810 49 57.93 +16 51 11.6          19.8 GVEA144L01
     K24A03R KC2024 01 12.08859010 49 57.36 +16 51 26.3          19.8 GVEA144L01
     K24A03R KC2024 01 12.62729410 46 57.566+18 18 09.18         19.7 GVEA144474
     K24A03R KC2024 01 12.63095010 46 56.218+18 18 42.59         19.7 GVEA144474
     K24A03R KC2024 01 12.63460510 46 54.986+18 19 15.53         18.2 GVEA144474

Observer details:
474 Mount John Observatory, Lake Tekapo.  Observers A. C. Gilmore, P. M.
    Kilmartin.  Measurer P. M. Kilmartin.  1.0-m f/7.7 Reflector + CCD.
G96 Mt. Lemmon Survey.  Observer J. K. Hogan.  Measurers T. Beuden, V. F.
    Carvajal, D. Fay, J. B. Fazekas, D. C. Fuls, A. R. Gibbs, A. D. Grauer, H.
    Groeller, J. K. Hogan, R. A. Kowalski, S. M. Larson, G. J. Leonard, D.
    Rankin, R. L. Seaman, F. C. Shelly, K. W. Wierzchos.  1.5-m reflector +
    10K CCD.
H36 Sandlot Observatory, Scranton.  Observer G. Hug.  0.56-m f/4.8 reflector +
    CMO.
L01 Visnjan Observatory, Tican.  Observers K. Korlevic, L. Poropat.  Measurer
    K. Korlevic.  1.0-m f/2.9 reflector + CCD.
V06 Catalina Sky Survey-Kuiper.  Observer K. W. Wierzchos.  Measurers T.
    Beuden, V. F. Carvajal, D. Fay, J. B. Fazekas, D. C. Fuls, A. R. Gibbs, A.
    D. Grauer, H. Groeller, J. K. Hogan, R. A. Kowalski, S. M. Larson, G. J.
    Leonard, D. Rankin, R. L. Seaman, F. C. Shelly, K. W. Wierzchos.  1.55-m
    reflector + 1K CCD.

Orbital elements:
2024 AR3                                                 Earth MOID = 0.0170 AU
Epoch 2023 Sept. 13.0 TT = JDT 2460200.5                MPC                     
M 333.86669              (2000.0)            P               Q                  
n   0.34155989     Peri.  302.36556     +0.58156254     -0.79149819             
a   2.0268649      Node   110.92940     +0.79750494     +0.50911999             
e   0.5828298      Incl.   11.60710     +0.16053309     +0.33812342             
P   2.89           H   23.54          G   0.15           U   9                  
Residuals in seconds of arc
240111 G96  0.4+  0.2-    240111 V06  0.1+  0.0     240112 L01  0.2+  0.1-
240111 G96  0.5-  0.2+    240111 H36  0.6-  0.2-    240112 L01  0.0   0.1+
240111 G96  0.0   0.2+    240111 H36  0.3+  0.2+    240112 474  0.2+  0.1-
240111 G96  0.0   0.1+    240111 H36  0.3-  0.1-    240112 474  0.4-  0.1+
240111 V06  0.1+  0.0     240112 L01  0.4-  0.1+    240112 474  0.6+  0.2-
240111 V06  0.0   0.3-    240112 L01  0.0   0.0
240111 V06  0.0   0.0     240112 L01  0.3+  0.1+

Ephemeris:
2024 AR3                 a,e,i = 2.03, 0.58, 12                  q = 0.8455
Date    TT    R. A. (2000) Decl.     Delta      r    Elong.  Phase     V
2023 12 13    19 39 37.2 -58 39 25   0.1683  0.8703    43.5   128.8    25.0
...
2023 12 28    15 07 43.1 -61 29 26   0.06829 0.9416    50.6   126.1    22.9
...
2024 01 05    11 51 14.8 -15 36 33   0.05544 0.9936    99.1    77.7    20.0
...
2024 01 11    10 56 30.6 +13 40 33   0.08137 1.0371   129.5    47.0    19.9
2024 01 12    10 50 27.6 +16 37 35   0.08727 1.0447   132.7    43.8    20.0
2024 01 13    10 44 56.7 +19 11 32   0.09344 1.0523   135.6    40.9    20.1
...
2024 01 19    10 19 33.5 +29 10 52   0.1343  1.0995   147.5    28.8    20.7
...
2024 01 27    09 57 16.7 +35 10 55   0.1956  1.1652   155.3    20.6    21.3
...
2024 02 11    09 32 32.7 +38 28 38   0.3283  1.2934   155.9    18.2    22.6

A. U. Tomatic                (C) Copyright 2024 MPC           M.P.E.C. 2024-A144





More information about the Iaude mailing list